User: anonymous
Location: Mentone
(34.5413°N, 85.5351°W)
Time: 01:46:08
(UTC-05:00)
Language:

ERBS - Orbit

View from above orbital plane
View from above orbital plane
View from above satellite
View from above satellite

Ground track
Ground track

The orbit data is extracted from the following two-line orbital elements,

1 15354U 84108B   14244.09391675  .00008105  00000-0  29307-3 0  5662
2 15354 057.0130 174.2673 0015575 000.0367 000.0680 15.29249083641238
Epoch (UTC): 01 September 2014 02:15:14
Eccentricity: 0.0015575
inclination: 57.0130°
perigee height: 467 km
apogee height: 489 km
right ascension of ascending node: 174.2673°
argument of perigee: 0.0367°
revolutions per day: 15.29249083
mean anomaly at epoch: 0.0680°
orbit number at epoch: 64123

The dashed part of the orbit path shows where the satellite is in the earth's shadow,  

DLR